Location: San Martino di Castrozza
(46.2667°N, 11.8000°E)
Time: 01:43:02
(UTC+00:00)

Cosmos 1378 - Pass Details

Date: 23 April 2021
Orbit: 490 x 499 km, 82.5° (Epoch: 15 May)

Event Time Altitude Azimuth Distance (km) Brightness Sun altitude
Exits shadow 01:36:31 66° 90° (E) 542 3.3 -22.7°
Drops below altitude 10° 01:40:08 10° 14° (NNE) 1,693 6.7 -22.3°
Sets 01:42:15 0° 12° (NNE) 2,580 7.8 -22.1°
